OneWeb SL0646

operational
NORAD ID: 55810 Int'l Des: 2023-029 Owner: ONEWEBN Country: UK Constellation: oneweb
LEOCIRCULARPOLARONEWEB_TYPE

About OneWeb SL0646

Description loading...

Live Position

Loading 3D Globe...

Upcoming Passes

Altitude History

Altitude vs Time

uPlot chart will show altitude changes over time

Two-Line Element Set

1 55810U 23029Q 26034.24053218 .00000079 00000-0 16614-3 0 9992
2 55810 87.9250 331.6405 0001573 86.4573 273.6739 13.19723676141225
Epoch: Feb 3, 2026 • Age: 8 hours

Current Status

Altitude 1204.1 km
Velocity 7.25 km/s
Sub-Earth Point -45.04°S, 167.07°E
Launch Date Mar 9, 2023
Age 2.9 years
Type internet

Technical Details

Classification Payload
Mass 148.00 kg
Dry Mass 140.00 kg
Total Mass 148.00 kg
Length 1.30 m
Diameter 1.00 m
Span 5.00 m
Shape Trapezoid+2 pan
Manufacturer ONEWUS
Bus Type ARROW
Phase Status In Orbit
Owner/State ONEWEBN/UK

Large Constellations

Loading constellations...